Weather in Kochi

Japan     33°33′25″N   133°31′36″E
temp.,
°C
wind,
m/s
gust,
m/s
humid.,
%
clouds,
%
prec.,
mm/h
press.,
hPa
HPBL,
m
16 april, fri
fri1600:00+12n2262100 0.0 102196
03:00+12nne228095 0.4 102198
06:00+13nne2288100 0.6 1021167
09:00+14nne238991 1.1 1021258
12:00+17ene468649 0.6 1020566
15:00+18se457587 1.4 1019707
18:00+16ese4690100 1.2 1021303
21:00+16ese5996100 3.2 1021700
17 april, sat
sat1700:00+15e51094100 9.7 1020904
03:00+17se91394100 22.2 1017814
06:00+16s1291100 3.9 101646
09:00+15nw3589100 6.2 1016312
12:00+14nne1190100 2.3 1014210
15:00+14sw1192100 3.6 1010132
18:00+15ssw1190100 0.1 101064
21:00+13w3492100 0.2 1011104
18 april, sun
sun1800:00+11wnw61170100 0.1 1011716
03:00+9wnw59610 0.1 1011679
06:00+8wnw510645 0.0 1012873
09:00+11w6125918 0.0 10121882
12:00+14wnw813475 0.0 10111963
15:00+15wnw813477 0.0 10102176
18:00+13wnw510510 0.0 10121369
21:00+10nw33650 0.0 1014108
19 april, mon
mon1900:00+8nw23720 0.0 1015100
03:00+8nnw22650 0.0 101573
06:00+8nnw22620 0.0 101676
09:00+15w12430 0.0 1016456
12:00+17s54440 0.0 1015892
15:00+17sse33490 0.0 1014743
18:00+16e12600 0.0 1014104
21:00+13nnw22660 0.0 101662
20 april, tue
tue2000:00+11nnw22630 0.0 101773
03:00+10nnw22590 0.0 101872
06:00+10nnw22530 0.0 101962
09:00+16ssw11390 0.0 1020286
12:00+19s22400 0.0 1019496
15:00+20s22420 0.0 1018517
18:00+17s12630 0.0 1019116
21:00+14nnw21640 0.0 102134